Regional Weather Roundup
Issued by NWS Wakefield, VA

Home | Current Version | Previous Version | Graphics & Text | Print | Product List | Glossary On
Versions: 1 2 3 4 5 6 7 8 9 10 11 12 13 14 15 16 17 18 19 20 21 22 23 24 25 26 27 28 29 30 31 32 33 34 35 36 37 38 39 40 41 42 43 44 45 46 47 48 49 50
000
ASUS41 KAKQ 162110
RWRAKQ

REGIONAL WEATHER ROUNDUP
NATIONAL WEATHER SERVICE WAKEFIELD VA
500 PM EDT TUE SEP 16 2014

Note: "fair" indicates few or no clouds below 12,000 feet with no
significant weather and/or obstructions to visibility. * = Denotes
station may not report precipitation (e.g., rain,snow,etc.),
thunder or fog.

VAZ042-051-052>054-056-162200-
NORTHERN VIRGINIA

CITY           SKY/WX    TMP DP  RH WIND       PRES   REMARKS
WASH NATIONAL  MOSUNNY   79  49  34 NW13      29.99F
DULLES         MOSUNNY   75  51  43 N8G21     30.00S
FORT BELVOIR   SUNNY     77  51  40 NW9       29.99F
QUANTICO       MOSUNNY   77  51  40 N12       29.99F
FREDERICKSBRG* MOSUNNY   79  53  40 N7        29.98S
STAFFORD*      SUNNY     76  53  43 N12       30.02F
WARRENTON      MOSUNNY   78  59  52 N8        30.00S
CULPEPER*      SUNNY     75  52  43 N9        30.00S
MANASSAS*      NOT AVBL
LEESBURG*      CLOUDY    73  54  49 N8        30.01F
WINCHESTER     PTSUNNY   73  45  35 N7        30.01S
FRONT ROYAL*   CLEAR     73  50  43 NW9       30.00S
LURAY*         CLEAR     75  52  43 NW7       30.02R
$$

VAZ048-049-060>072-079>083-162200-
CENTRAL AND SOUTH CENTRAL VIRGINIA...AND NORTH CENTRAL NORTH CAROLINA

CITY           SKY/WX    TMP DP  RH WIND       PRES   REMARKS
RICHMOND       PTSUNNY   78  60  53 NE9       29.97R
CHESTERFIELD*  MOCLDY    81  57  44 SW5       29.98S
PETERSBURG*    PTSUNNY   80  57  45 SW5       29.97S
HANOVER        PTSUNNY   77  62  59 VRB6      29.99S
TAPPAHANNOCK*  MOSUNNY   76  55  47 N5        29.99S
CHARLOTTSVILLE SUNNY     77  55  46 N6        29.99S
ORANGE*        MOSUNNY   77  52  41 N8        30.01S
LOUISA*        CLOUDY    75  57  53 N7        29.98S
FARMVILLE*     PTSUNNY   79  61  53 CALM      29.95F
CREWE*         PTCLDY    81  63  53 CALM      29.97S
FORT PICKETT*  PTCLDY    79  60  52 CALM      29.97F
LUNENBURG*     PTCLDY    79  63  56 CALM      29.97F
SOUTH HILL*    MOSUNNY   82  63  51 CALM      30.02F
LAWRENCEVILLE* PTCLDY    80  64  57 CALM      29.97S
ROANOKE RAPIDS CLOUDY    79  63  57 W3        29.97S
RALEIGH        MOSUNNY   81  63  54 NE5       29.96F
$$

VAZ088>098-162200-
SOUTHEAST VIRGINIA

CITY           SKY/WX    TMP DP  RH WIND       PRES   REMARKS
NORFOLK        CLOUDY    76  61  59 E5        29.97S
VIRGINIA BEACH PTSUNNY   77  58  51 N5        29.96F
NORFOLK NAVAL  PTSUNNY   79  63  57 E7        29.98S
WEST POINT*    CLOUDY    76  62  60 N3        29.98R
NEWPORT NEWS   PTSUNNY   82  65  56 E8        29.96F
LANGLEY AFB    MOSUNNY   77  64  63 VRB6      29.96F
FORT EUSTIS    SUNNY     78  59  51 VRB2      29.95S
WILLIAMSBURG*  MOSUNNY   82  63  51 CALM      29.97S
HR EXEC AP*    CLOUDY    79  64  61 CALM      29.98F
FRANKLIN*        N/A     81  61  50 CALM      29.96F
WAKEFIELD      MOSUNNY   81  61  50 SW3       29.96F
$$

VAZ020-022-025-037-045-162200-
WEST CENTRAL AND SOUTHWEST VIRGINIA

CITY           SKY/WX    TMP DP  RH WIND       PRES   REMARKS
STAUNTON*      MOSUNNY   76  51  42 N8        30.03S
HOT SPRINGS VA CLOUDY    60  43  53 NW6       30.12S
LYNCHBURG      MOSUNNY   76  62  62 CALM      30.00F
DANVILLE       PTSUNNY   76  64  66 NE7       29.98F
SOUTH BOSTON*  NOT AVBL
MARTINSVILLE   PTSUNNY   78  64  63 NE5       30.01F
ROANOKE        MOSUNNY   76  57  51 W7        30.02F
BLACKSBURG     SUNNY     72  63  73 NW10      30.07F
DUBLIN*        MOSUNNY   74  61  63 NW6       30.07S
MARION*        CLOUDY    70  60  71 NW3       30.09F
HILLSVILLE*    CLOUDY    68  61  77 N10       30.08S
RICHLANDS*     MOCLDY    72  60  65 NW6       30.08F
WISE*          MOSUNNY   72  55  56 W6        30.09F
ABINGDON*      MOSUNNY   74  63  68 N8        30.06F
$$

MDZ021>025-VAZ099-100-162200-
SOUTHERN MARYLAND AND THE DELMARVA PENINSULA

CITY           SKY/WX    TMP DP  RH WIND       PRES   REMARKS
PATUXENT RIVER MOSUNNY   78  53  41 NW8       29.97S
BAY BRIDGE APT   N/A     72  54  53 N5        29.99R
LEONARDTOWN    SUNNY     75  50  41 NW5       29.99S
DOVER          MOSUNNY   73  55  52 N13       29.96S
GEORGETOWN     CLOUDY    76  55  48 E14       29.97S
EASTON         MOSUNNY   75  57  53 N7        30.02R
CAMBRIDGE      MOSUNNY   77  54  44 NW7       29.97S
SALISBURY      MOSUNNY   76  54  46 NW8       29.97S
OCEAN CITY     PTSUNNY   75  59  57 NE7       29.96S
WALLOPS ISLAND SUNNY     78  58  49 N12       29.96F
ACCOMACK*      SUNNY     75  57  53 N6        29.97S
$$

NCZ012>017-030>032-162200-
EASTERN NORTH CAROLINA

CITY           SKY/WX    TMP DP  RH WIND       PRES   REMARKS
ELIZABETH CITY CLOUDY    79  64  60 E8        29.96S
AHOSKIE*       MOSUNNY   76  67  75 CALM      29.96F
EDENTON*       MOSUNNY   82  64  54 N6        29.95F
CURRITUCK*     MOSUNNY   79  56  44 NE6       29.97S
KILL DEVIL HLS MOSUNNY   78  67  68 N6        29.96R
MANTEO         SUNNY     78  67  69 NE9       29.96S
CAPE HATTERAS  SUNNY     78  69  73 SW5       29.95F
TARBORO*       CLOUDY    80  66  61 CALM      29.97F
GOLDSBORO      PTSUNNY   82  68  62 CALM      29.94F
WASHINGTON     MOSUNNY   82  65  56 CALM      29.96S
GREENVILLE     MOSUNNY   82  64  54 CALM      29.98S
NEW BERN       SUNNY     87  65  47 W6        29.96S
WILMINGTON     MOSUNNY   80  71  74 SE7       29.95F
$$

VAZ048-162200-
ELSEWHERE

CITY           SKY/WX    TMP DP  RH WIND       PRES   REMARKS
HARRISBURG PA  PTSUNNY   71  49  45 N6        30.00S
BALTIMORE      MOSUNNY   75  52  44 NW12      29.98F
ANNAPOLIS      MOSUNNY   75  52  44 NW9       29.98S
ANDREWS AFB    SUNNY     75  52  43 N10       29.99S
WILMINGTON DE  PTSUNNY   73  55  53 N6        29.99R
PHILADELPHIA   PTSUNNY   72  52  49 NW5       29.98R
WILDWOOD NJ*   MOSUNNY   73  54  49 NW8       29.97S
ATLANTIC CITY  MOSUNNY   74  58  57 N13       29.96S
HENDERSON NC   PTSUNNY   77  61  56 CALM      29.98F
GREENSBORO     PTSUNNY   81  64  57 SE7       29.95F THUNDER
ROCKY MOUNT    CLOUDY    80  63  55 NW5       29.97S
FAYETTEVILLE   SUNNY     86  66  51 N3        29.95F
CHARLOTTE      MOSUNNY   85  65  51 W3        29.96F
$$

VAZ100-162200-
MARINE

STATION/POSITION TIME  TEMP    WIND        PRES    WAVE   SWELL
                       AIR SEA DIR/SP/G            HT/PER HT/PER
                 (UTC) (F)     (DEG/KT/KT) (MB)    (FT/S) (FT/S)
44066 TX TWR #4  2100   66 73   50/ 10/ 12 1014.0S   2/12   2/12
CAPE MAY NJ      2100   74 76  330/  8/ 12 1014.2S
LEWES DE         2100   72 73  350/ 12/ 14 1014.5R
15NM E FENWICK I 2100   72 72              1014.2R   2/ 4
OCEAN-CITY-INLET 2100   74 72   70/  7/ 12 1014.1S
WACHAPREAGUE VA  2100   77 75  330/  4/  9 1014.6F
THOMAS POINT MD  2100   72 75   50/  8/  9 1016.1R
GOOSES REEF MD   2100   74     360/ 10/ 12 1015.6S
COVE POINT MD    2100   72      20/ 10/ 12 1014.9F
SOLOMONS ISLAND  2100      76                N/A
BISHOPS HEAD MD  2100   75 76  330/  7/ 11 1014.6S
PINEY POINT MD   2100          360/ 12/ 13   N/A
POTOMAC MD       2100   74      30/ 10/ 14 1014.4F
CAMBRIDGE MD     2100   74 75  290/  8/ 11 1014.8S
LEWISETTA VA     2100   75 75  340/  8/ 11 1014.6S
RAPPAHANNOCK LGT 2100           10/ 12/ 14 1015.2F
STINGRAY PT      2100   74      50/ 10/ 10   N/A
YORK RVR RNG VA  2100   74      80/  8/  9 1014.3F
YORKTOWN VA      2100   75 77  100/  8/  9 1014.4S
JAMESTOWN VA     2100   78        CALM       N/A
DOMINION TERM VA 2100   76     130/  5/  6 1014.7F
KIPTOPEKE VA     2100      80  320/  5/  6   N/A
CHES BAY BRIDGE  2100   74 76   60/  5/  5 1014.4S
CAPE HENRY VA    2100   75     360/  3/  5 1013.7F
CHESAPEAKE LGHT  2000   74     350/  8/  8 1015.6S
WILLOUBY STN VA  2100   75      70/  4/  4 1013.6R
S CRANEY ISL VA  2100           10/  4/  5 1014.4S
CAPE HENRY BUOY  2100      76                N/A     2/13   2/13
1ST LANDING BUOY 2100   75      40/  2/  4 1014.6R
CAPE CHARLES BUO 2100      76                N/A     2/13   2/13
OFFSHORE WE BUOY 2100      76                N/A     2/13   2/13
64NM E OF VA BCH 2100   74 79  330/ 14/ 17 1014.1S   2/13   2/13
DUCK PIER NC     2100   75 76   10/  9/ 11 1014.0R
44100 DUCK FRF   2100      75                N/A     2/13   2/13
44056 DUCK FRF   2100                        N/A     2/13   2/13
OREGON INLET NC  2100   78 76   20/  2/  3 1014.4S
HATTERAS NC      2100   80 78  180/  5/  6 1014.5F
DIAMOND SHLS NC  2100   77     280/  2/  2 1014.3F   2/ 8   2/ 8
CAPE LOOKOUT NC  2000   78     180/  8/  8 1014.5F
$$


USA.gov is the U.S. government's official web portal to all federal, state and local government web resources and services.